This is the latest recevied weather packets stored in our database for station/object K8WEH. If no packets are shown the sender has not sent any weather packets the latest 1 day(s).
| Time | Temp. | Humidity | Pressure | Rain* | Wind** | Luminosity | Snow |
|---|---|---|---|---|---|---|---|
| 1778033136 | 14.44° C | 47% | 1008.6 hPa | 0.25 mm | - | - | - |
| 1778032837 | 14.44° C | 47% | 1008.6 hPa | 0.51 mm | - | - | - |
| 1778032537 | 14.44° C | 47% | 1008.6 hPa | 0.76 mm | - | - | - |
| 1778032236 | 14.44° C | 48% | 1008.6 hPa | 0.76 mm | - | - | - |
| 1778031936 | 14.44° C | 49% | 1008.5 hPa | 0.76 mm | - | - | - |
| 1778031635 | 14.44° C | 49% | 1008.5 hPa | 0.76 mm | - | - | - |
| 1778031334 | 14.44° C | 49% | 1008.4 hPa | 0.51 mm | - | - | - |
| 1778031035 | 14.44° C | 49% | 1008.7 hPa | 0.51 mm | - | - | - |
| 1778030733 | 15° C | 49% | 1008.4 hPa | 0.51 mm | - | - | - |
| 1778030432 | 15° C | 49% | 1008.6 hPa | 0.76 mm | - | - | - |
| 1778030133 | 15° C | 49% | 1008.7 hPa | 0.76 mm | - | - | - |
| 1778029830 | 15° C | 47% | 1009.1 hPa | 0.76 mm | - | - | - |
| 1778029248 | 15° C | 48% | 1009 hPa | 0.51 mm | - | - | - |
| 1778028930 | 15° C | 49% | 1008.9 hPa | 0.25 mm | - | - | - |
| 1778028329 | 15° C | 49% | 1008.9 hPa | 0.25 mm | - | - | - |
| 1778028028 | 15° C | 51% | 1008.9 hPa | 0.25 mm | - | - | - |
| 1778027728 | 15° C | 52% | 1008.8 hPa | 0.25 mm | - | - | - |
| 1778027428 | 15° C | 51% | 1008.7 hPa | 0.25 mm | - | - | - |
| 1778026827 | 15.56° C | 53% | 1008.7 hPa | 0 mm | - | - | - |
| 1778026529 | 15.56° C | 54% | 1008.7 hPa | 0 mm | - | - | - |
| 1778026226 | 15.56° C | 54% | 1008.6 hPa | 0 mm | - | - | - |
| 1778025925 | 15.56° C | 54% | 1008.8 hPa | 0 mm | - | - | - |
| 1778024723 | 15.56° C | 59% | 1008.7 hPa | 0 mm | - | - | - |
| 1778022919 | 16.11° C | 70% | 1009.4 hPa | 0.51 mm | - | - | - |
| 1778021113 | 17.22° C | 74% | 1010.4 hPa | 0.51 mm | - | - | - |
* Rain latest hour (hover to see other rain measurements)
** Current wind speed in m/s (hover to see current wind gust speed)